Weather History for Cambridge, MN

Change the Weather History Date:

Saturday, August 3, 2013

  Actual Average Record
Temperature  
Mean Temperature 62 °F -  
Max Temperature 75 °F 79 °F 134 °F (1998)
Min Temperature 48 °F 57 °F 43 °F (1971)
Degree Days  
Heating Degree Days 4    
Growing Degree Days 12 (Base 50)    
Moisture  
Dew Point 54 °F    
Average Humidity 78    
Maximum Humidity 94    
Minimum Humidity 61    
Precipitation  
Precipitation 0.00 in - - ()
Sea Level Pressure  
Sea Level Pressure 30.13 in    
Wind  
Wind Speed 2 mph (NW)    
Max Wind Speed 10 mph    
Max Gust Speed 16 mph    
Visibility 10 miles    
Events      
Averages and records for this station are not official NWS values.
T = Trace of Precipitation, MM = Missing Value Source: NWS Daily Summary

Daily Weather History Graph

Daily Weather History Graph

Search for Another Location

Airport:

Trip Planner

Search our weather history database for the weather conditions in past years. The results will help you decide how hot, cold, wet, or windy it might be!

Date:

Astronomy

Aug. 03, 2013 Rise Set
Actual Time 5:59 AM CDT 8:38 PM CDT
Civil Twilight 5:25 AM CDT 9:11 PM CDT
Nautical Twilight 4:42 AM CDT 9:54 PM CDT
Astronomical Twilight 3:53 AM CDT 10:43 PM CDT
Moon 3:07 AM CDT (8/3) 6:22 PM CDT (8/3)
Length of Visible Light 15h 46m
Length of Day
14h 38m
Waning Crescent, 9% of the Moon is Illuminated
Aug 3
Waning Crescent
Aug 6
New
Aug 14
First Quarter
Aug 20
Full
Aug 28
Last Quarter

Hourly Weather History & Observations

Time (CDT) Temp. Dew Point Humidity Pressure Visibility Wind Dir Wind Speed Gust Speed Precip Events Conditions
12:15 AM 53.6 °F 51.8 °F 94% 30.04 in 10.0 mi Calm Calm - N/A   Clear
12:34 AM 53.6 °F 51.8 °F 94% 30.05 in 10.0 mi Calm Calm - N/A   Clear
12:55 AM 53.6 °F 50.0 °F 88% 30.05 in 10.0 mi Calm Calm - N/A   Clear
1:15 AM 51.8 °F 48.2 °F 88% 30.06 in 10.0 mi Calm Calm - N/A   Clear
1:34 AM 51.8 °F 48.2 °F 88% 30.06 in 10.0 mi Calm Calm - N/A   Clear
1:55 AM 53.6 °F 50.0 °F 88% 30.06 in 10.0 mi Calm Calm - N/A   Clear
2:15 AM 51.8 °F 48.2 °F 88% 30.06 in 10.0 mi Calm Calm - N/A   Clear
2:34 AM 51.8 °F 48.2 °F 88% 30.06 in 10.0 mi Calm Calm - N/A   Clear
2:55 AM 53.6 °F 50.0 °F 88% 30.06 in 10.0 mi Calm Calm - N/A   Clear
3:14 AM 50.0 °F 46.4 °F 87% 30.06 in 10.0 mi Calm Calm - N/A   Clear
3:35 AM 50.0 °F 46.4 °F 87% 30.07 in 10.0 mi Calm Calm - N/A   Clear
3:54 AM 48.2 °F 46.4 °F 93% 30.07 in 10.0 mi Calm Calm - N/A   Clear
4:15 AM 48.2 °F 46.4 °F 93% 30.07 in 10.0 mi Calm Calm - N/A   Clear
4:34 AM 50.0 °F 46.4 °F 87% 30.07 in 10.0 mi Calm Calm - N/A   Clear
4:55 AM 48.2 °F 46.4 °F 93% 30.08 in 10.0 mi Calm Calm - N/A   Scattered Clouds
5:15 AM 50.0 °F 46.4 °F 87% 30.09 in 10.0 mi Calm Calm - N/A   Mostly Cloudy
5:34 AM 48.2 °F 46.4 °F 93% 30.09 in 10.0 mi Calm Calm - N/A   Scattered Clouds
5:55 AM 50.0 °F 48.2 °F 94% 30.09 in 10.0 mi Calm Calm - N/A   Scattered Clouds
6:14 AM 50.0 °F 48.2 °F 94% 30.09 in 10.0 mi Calm Calm - N/A   Scattered Clouds
6:35 AM 48.2 °F 46.4 °F 93% 30.10 in 10.0 mi Calm Calm - N/A   Clear
6:55 AM 50.0 °F 48.2 °F 94% 30.11 in 10.0 mi Calm Calm - N/A   Scattered Clouds
7:15 AM 53.6 °F 50.0 °F 88% 30.11 in 10.0 mi Calm Calm - N/A   Clear
7:35 AM 55.4 °F 51.8 °F 88% 30.12 in 10.0 mi Calm Calm - N/A   Clear
7:55 AM 57.2 °F 53.6 °F 88% 30.12 in 10.0 mi Calm Calm - N/A   Clear
8:15 AM 60.8 °F 55.4 °F 82% 30.13 in 10.0 mi Calm Calm - N/A   Clear
8:34 AM 60.8 °F 55.4 °F 82% 30.13 in 10.0 mi Calm Calm - N/A   Clear
8:55 AM 62.6 °F 57.2 °F 82% 30.14 in 10.0 mi Calm Calm - N/A   Scattered Clouds
9:15 AM 64.4 °F 57.2 °F 77% 30.14 in 10.0 mi NNW 3.5 mph - N/A   Scattered Clouds
9:34 AM 64.4 °F 57.2 °F 77% 30.15 in 10.0 mi NNW 4.6 mph - N/A   Clear
9:55 AM 66.2 °F 57.2 °F 73% 30.15 in 10.0 mi WNW 4.6 mph - N/A   Clear
10:14 AM 68.0 °F 57.2 °F 68% 30.15 in 10.0 mi NW 6.9 mph - N/A   Clear
10:35 AM 68.0 °F 57.2 °F 68% 30.15 in 10.0 mi NNW 6.9 mph - N/A   Scattered Clouds
10:55 AM 68.0 °F 57.2 °F 68% 30.16 in 10.0 mi NW 5.8 mph - N/A   Scattered Clouds
11:14 AM 68.0 °F 57.2 °F 68% 30.15 in 10.0 mi North 4.6 mph - N/A   Scattered Clouds
11:35 AM 68.0 °F 57.2 °F 68% 30.16 in 10.0 mi NNW 4.6 mph - N/A   Mostly Cloudy
11:55 AM 69.8 °F 59.0 °F 68% 30.16 in 10.0 mi NW 4.6 mph - N/A   Scattered Clouds
12:14 PM 69.8 °F 59.0 °F 68% 30.15 in 10.0 mi NNW 6.9 mph - N/A   Clear
12:35 PM 71.6 °F 60.8 °F 69% 30.15 in 10.0 mi WNW 3.5 mph - N/A   Clear
12:55 PM 71.6 °F 60.8 °F 69% 30.15 in 10.0 mi WSW 6.9 mph - N/A   Scattered Clouds
1:14 PM 71.6 °F 60.8 °F 69% 30.15 in 10.0 mi WNW 4.6 mph - N/A   Scattered Clouds
1:35 PM 71.6 °F 60.8 °F 69% 30.15 in 10.0 mi WNW 9.2 mph - N/A   Scattered Clouds
1:55 PM 71.6 °F 60.8 °F 69% 30.15 in 10.0 mi West 9.2 mph - N/A   Scattered Clouds
2:14 PM 73.4 °F 60.8 °F 65% 30.15 in 10.0 mi WNW 10.4 mph - N/A   Scattered Clouds
2:35 PM 71.6 °F 60.8 °F 69% 30.15 in 10.0 mi NNW 6.9 mph - N/A   Mostly Cloudy
2:55 PM 71.6 °F 59.0 °F 64% 30.16 in 10.0 mi WNW 5.8 mph - N/A   Mostly Cloudy
3:14 PM 71.6 °F 60.8 °F 69% 30.15 in 10.0 mi NW 4.6 mph - N/A   Scattered Clouds
3:35 PM 73.4 °F 60.8 °F 65% 30.14 in 10.0 mi West 3.5 mph - N/A   Clear
3:55 PM 71.6 °F 60.8 °F 69% 30.14 in 10.0 mi NNW 6.9 mph - N/A   Scattered Clouds
4:14 PM 73.4 °F 60.8 °F 65% 30.14 in 10.0 mi West 5.8 mph - N/A   Scattered Clouds
4:35 PM 73.4 °F 60.8 °F 65% 30.14 in 10.0 mi NW 6.9 mph 16.1 mph N/A   Clear
4:55 PM 73.4 °F 60.8 °F 65% 30.14 in 10.0 mi NNW 8.1 mph - N/A   Scattered Clouds
5:14 PM 71.6 °F 59.0 °F 64% 30.14 in 10.0 mi NNW 3.5 mph - N/A   Scattered Clouds
5:35 PM 75.2 °F 60.8 °F 61% 30.14 in 10.0 mi NW 8.1 mph - N/A   Clear
5:54 PM 73.4 °F 59.0 °F 61% 30.14 in 10.0 mi NNW 6.9 mph - N/A   Clear
6:15 PM 73.4 °F 59.0 °F 61% 30.14 in 10.0 mi NNW 5.8 mph - N/A   Clear
6:34 PM 73.4 °F 59.0 °F 61% 30.14 in 10.0 mi NNW 8.1 mph - N/A   Clear
6:55 PM 73.4 °F 59.0 °F 61% 30.14 in 10.0 mi NNW 4.6 mph - N/A   Clear
7:15 PM 71.6 °F 59.0 °F 64% 30.14 in 10.0 mi North 3.5 mph - N/A   Clear
7:34 PM 71.6 °F 59.0 °F 64% 30.14 in 10.0 mi NNW 3.5 mph - N/A   Clear
7:55 PM 69.8 °F 57.2 °F 64% 30.14 in 10.0 mi Calm Calm - N/A   Clear
8:15 PM 66.2 °F 57.2 °F 73% 30.15 in 10.0 mi Calm Calm - N/A   Clear
8:34 PM 64.4 °F 55.4 °F 73% 30.15 in 10.0 mi Calm Calm - N/A   Clear
8:55 PM 62.6 °F 55.4 °F 77% 30.15 in 4.0 mi Calm Calm - N/A   Haze
9:15 PM 60.8 °F 53.6 °F 77% 30.16 in 10.0 mi Calm Calm - N/A   Clear
9:35 PM 59.0 °F 53.6 °F 82% 30.17 in 10.0 mi Calm Calm - N/A   Clear
9:55 PM 55.4 °F 51.8 °F 88% 30.17 in 10.0 mi Calm Calm - N/A   Clear
10:14 PM 55.4 °F 51.8 °F 88% 30.18 in 10.0 mi Calm Calm - N/A   Clear
10:35 PM 55.4 °F 51.8 °F 88% 30.18 in 10.0 mi Calm Calm - N/A   Clear
10:55 PM 55.4 °F 51.8 °F 88% 30.18 in 10.0 mi Calm Calm - N/A   Clear
11:14 PM 53.6 °F 50.0 °F 88% 30.19 in 10.0 mi Calm Calm - N/A   Clear
11:35 PM 55.4 °F 51.8 °F 88% 30.20 in 10.0 mi Calm Calm - N/A   Clear
11:54 PM 55.4 °F 51.8 °F 88% 30.20 in 10.0 mi Calm Calm - N/A   Clear